[[{"header":{"parameterUnit":"m.s-1","parameterCategory":1,"la1":30.2991,"la2":30.254,"lo1":-89.0895,"lo2":-89.0444,"dy":0.0017,"dx":0.0017,"nx":28,"ny":28,"refTime":"2025-11-25T03:00:00:Z","depth":0,"parameterNumber":2,"parameterNumberName":"U-component_of_WINDS"},"data":[0,0,0,0,0,0,0,0,0,0,0,0,0,0,0,0,0,0,0,0,0,0,0,0,0,0,0,0,0,0,0,0,0,0,0,0,0,0,0,0,0,0,0,0,0,0,0,0,0,0,0,0,0,0,0,0,0,0,1.2609,1.2609,0,1.2574,1.2574,1.2574,1.2538,1.2537,1.2537,1.2536,1.2501,1.25,1.25,0,0,0,0,0,0,0,0,0,0,0,0,0,1.2647,1.2647,1.2609,1.2609,1.2608,1.2575,1.2574,1.2574,1.2538,1.2537,1.2537,1.2536,1.2501,1.25,1.25,0,0,0,0,0,0,0,0,0,0,0,0,0,1.2624,1.2647,1.2609,1.2586,1.2584,1.2575,1.2574,1.2573,1.2538,1.2537,1.2536,1.2536,1.2501,1.2501,1.25,1.251,0,0,1.2498,1.2497,0,0,0,0,0,0,0,0,1.2625,1.2622,1.259,1.2588,1.2585,1.256,1.2574,1.2552,1.2538,1.2555,1.2536,1.2535,1.2521,1.2519,1.2514,1.2509,1.2507,1.2498,1.2497,1.2497,1.2497,0,0,0,0,0,0,0,1.2627,1.2623,1.2595,1.259,1.2587,1.2579,1.2575,1.257,1.2543,1.2554,1.2551,1.2548,1.252,1.2515,1.2513,1.2506,1.2498,1.2497,1.2496,1.2496,1.2513,1.2513,0,0,0,0,0,0,1.2631,1.2625,1.2597,1.2594,1.2604,1.2579,1.2574,1.2569,1.2543,1.2538,1.2548,1.2546,1.2516,1.2514,1.2511,1.2525,1.2497,1.2496,1.2496,1.2512,1.2513,1.2514,0,0,0,0,0,0,1.2632,1.2629,1.2598,1.2609,1.2604,1.2579,1.2573,1.2568,1.2563,1.2539,1.2534,1.2548,1.2515,1.2512,1.2512,1.2523,1.2496,1.2495,1.2511,1.2512,1.2513,1.255,0,0,0,0,0,0,1.2634,1.263,1.2633,1.2609,1.2604,1.2598,1.2574,1.2568,1.2562,1.2559,1.2537,1.2533,1.2515,1.2513,1.2511,1.2521,1.2495,1.251,1.2511,1.2513,1.2547,1.2552,1.2556,0,0,0,0,0,1.2635,1.2643,1.2633,1.263,1.2607,1.2599,1.2596,1.2575,1.2563,1.2566,1.2551,1.2533,1.2522,1.2513,1.2511,1.2521,1.2509,1.2511,1.2513,1.2545,1.2551,1.2556,0,0,0,0,0,0,1.2667,1.264,1.2628,1.2628,1.2616,1.2593,1.2596,1.2581,1.2572,1.2569,1.2544,1.2539,1.2542,1.2531,1.2522,1.2532,1.2513,1.2515,1.2539,1.2544,1.2548,1.2551,1.2494,0,0,0,0,0,1.2675,1.267,1.2646,1.2649,1.2644,1.2621,1.2617,1.2602,1.2589,1.2583,1.2568,1.2556,1.255,1.2546,1.2539,1.2546,1.2542,1.2552,1.2556,1.256,1.2562,1.2568,1.2573,1.252,1.252,1.252,0,0,1.2689,1.2674,1.2672,1.2655,1.2644,1.2641,1.2617,1.2614,1.2612,1.2582,1.2582,1.2571,1.2556,1.256,1.2561,1.2551,1.2576,1.2562,1.2565,1.2565,1.2571,1.2576,1.258,1.2521,1.2521,1.2521,0,0,1.2715,1.2701,1.2704,1.2694,1.2679,1.2664,1.2665,1.2644,1.2636,1.2635,1.2614,1.2612,1.2601,1.2593,1.2587,1.2614,1.2599,1.2613,1.2635,1.2642,1.2647,1.265,1.2663,1.2667,1.2614,1.2615,1.2615,0,1.2735,1.2729,1.2707,1.2707,1.2701,1.2676,1.268,1.2671,1.2654,1.2652,1.2641,1.263,1.2617,1.2621,1.2628,1.2624,1.2626,1.2615,1.2648,1.2651,1.2654,1.2666,1.267,1.2617,1.2616,1.2616,1.2616,0,1.2756,1.2753,1.2757,1.2742,1.2737,1.2739,1.2719,1.2717,1.2704,1.2691,1.2693,1.2678,1.2669,1.2669,1.2655,1.2672,1.2667,1.2652,1.2633,1.2662,1.2672,1.2676,1.2619,1.2619,1.2618,1.2618,0,0,1.2798,1.2775,1.2777,1.2772,1.2754,1.2752,1.2754,1.2746,1.2746,1.2736,1.2738,1.2732,1.272,1.2713,1.2699,1.2705,1.2731,1.269,1.2689,1.27,1.2753,1.2765,1.2771,1.2721,1.2722,1.2722,1.2755,0,1.2822,1.2824,1.2806,1.2813,1.2812,1.279,1.2792,1.2783,1.2772,1.277,1.2758,1.2755,1.2738,1.2734,1.2739,1.2727,1.2742,1.2724,1.2725,1.2725,1.2731,1.2776,1.2787,1.2819,1.2759,1.2759,1.276,0,1.2849,1.2843,1.285,1.2836,1.2835,1.2837,1.2831,1.2828,1.2819,1.2811,1.2806,1.2791,1.2794,1.2776,1.2781,1.277,1.2769,1.2764,1.2765,1.2765,1.2745,1.2779,1.2828,1.2834,1.2766,1.2765,1.2765,0,1.2882,1.2875,1.288,1.2876,1.2859,1.2862,1.2855,1.2844,1.2842,1.2837,1.2836,1.2831,1.2829,1.2826,1.2811,1.2799,1.282,1.2799,1.2815,1.2816,1.2821,1.2821,1.2873,1.2818,1.2818,1.2818,1.2818,0,1.2911,1.2917,1.2895,1.2898,1.2905,1.2886,1.2894,1.2885,1.2877,1.2879,1.286,1.2862,1.2841,1.2842,1.283,1.2839,1.2837,1.2833,1.283,1.2835,1.2836,1.2835,1.2833,1.2819,1.2819,1.2818,1.2818,0,1.2949,1.2934,1.2938,1.2923,1.292,1.2926,1.2914,1.2917,1.2907,1.291,1.291,1.2893,1.2894,1.2879,1.2876,1.2868,1.2883,1.2875,1.2886,1.2885,1.2902,1.2902,1.2957,1.2964,1.2903,1.2904,1.2904,0,1.2969,1.2973,1.296,1.2961,1.2955,1.2956,1.2954,1.2937,1.2937,1.2929,1.2934,1.2933,1.2932,1.2935,1.2923,1.2922,1.2915,1.2935,1.2915,1.2922,1.2919,1.2919,1.2921,1.2939,1.294,1.294,1.2941,0,1.3007,1.3,1.2999,1.2996,1.2996,1.2992,1.2988,1.299,1.2971,1.2973,1.2974,1.2973,1.2972,1.2973,1.297,1.2965,1.2951,1.2948,1.2952,1.2958,1.2966,1.2965,1.29,1.2946,1.2946,1.2945,1.2945,1.2945,1.3037,1.3042,1.3035,1.3035,1.303,1.3028,1.3032,1.3023,1.3023,1.3022,1.3012,1.3016,1.301,1.3006,1.3002,1.3006,1.2997,1.3002,1.3004,1.3006,1.301,1.2964,1.3006,1.3005,1.3005,1.3005,1.3005,0,1.3076,1.3071,1.3072,1.3068,1.3069,1.3057,1.3053,1.3055,1.3059,1.3055,1.3055,1.3059,1.306,1.3051,1.3052,1.3058,1.3052,1.3059,1.3059,1.3059,1.3017,1.3015,1.3064,1.3064,1.3064,1.3064,1.3064,1.3064,1.3096,1.3105,1.3098,1.3105,1.31,1.3105,1.3104,1.3103,1.31,1.3105,1.3107,1.3101,1.3096,1.3098,1.31,1.3097,1.31,1.311,1.3105,1.3067,1.3061,1.3055,1.3053,1.311,1.311,1.3146,1.3147,1.3147]},{"header":{"parameterUnit":"m.s-1","parameterCategory":1,"la1":30.2991,"la2":30.254,"lo1":-89.0895,"lo2":-89.0444,"dy":0.0017,"dx":0.0017,"nx":28,"ny":28,"refTime":"2025-11-25T03:00:00:Z","depth":0,"parameterNumber":3,"parameterNumberName":"V-component_of_WINDS"},"data":[0,0,0,0,0,0,0,0,0,0,0,0,0,0,0,0,0,0,0,0,0,0,0,0,0,0,0,0,0,0,0,0,0,0,0,0,0,0,0,0,0,0,0,0,0,0,0,0,0,0,0,0,0,0,0,0,0,0,-3.8177,-3.8177,0,-3.8194,-3.8194,-3.8194,-3.8177,-3.8176,-3.8175,-3.8175,-3.8189,-3.819,-3.8191,0,0,0,0,0,0,0,0,0,0,0,0,0,-3.8127,-3.8128,-3.8177,-3.8177,-3.8177,-3.8194,-3.8194,-3.8194,-3.8177,-3.8176,-3.8175,-3.8174,-3.8189,-3.819,-3.8191,0,0,0,0,0,0,0,0,0,0,0,0,0,-3.8147,-3.8129,-3.8177,-3.8171,-3.817,-3.8194,-3.8194,-3.8194,-3.8177,-3.8176,-3.8175,-3.8174,-3.8188,-3.819,-3.8191,-3.8221,0,0,-3.8196,-3.8197,0,0,0,0,0,0,0,0,-3.8146,-3.8149,-3.8171,-3.8171,-3.8171,-3.8182,-3.8182,-3.8203,-3.8177,-3.8174,-3.8174,-3.8173,-3.8187,-3.8189,-3.8194,-3.8222,-3.8223,-3.8196,-3.8197,-3.8198,-3.8198,0,0,0,0,0,0,0,-3.8144,-3.8148,-3.8184,-3.8172,-3.8171,-3.8166,-3.8168,-3.8186,-3.8186,-3.8174,-3.8173,-3.8176,-3.8187,-3.8193,-3.8195,-3.8223,-3.8196,-3.8198,-3.8199,-3.8199,-3.8276,-3.8277,0,0,0,0,0,0,-3.8144,-3.8147,-3.8183,-3.8184,-3.8156,-3.8168,-3.817,-3.8179,-3.8186,-3.8186,-3.8176,-3.8175,-3.8191,-3.8193,-3.8195,-3.823,-3.8198,-3.8199,-3.82,-3.8275,-3.8276,-3.8278,0,0,0,0,0,0,-3.8143,-3.8148,-3.8182,-3.8165,-3.8169,-3.817,-3.8181,-3.818,-3.8186,-3.8188,-3.8187,-3.8182,-3.819,-3.8193,-3.8215,-3.8231,-3.82,-3.8201,-3.8274,-3.8275,-3.8277,-3.8302,0,0,0,0,0,0,-3.8142,-3.8147,-3.8159,-3.8166,-3.817,-3.8203,-3.8182,-3.8181,-3.8189,-3.8187,-3.8193,-3.8193,-3.8189,-3.8213,-3.8217,-3.8232,-3.8203,-3.8272,-3.8274,-3.8276,-3.8299,-3.8304,-3.8308,0,0,0,0,0,-3.814,-3.8165,-3.816,-3.8164,-3.8185,-3.8204,-3.8206,-3.8202,-3.819,-3.8202,-3.8203,-3.8193,-3.8229,-3.8215,-3.8219,-3.8236,-3.8271,-3.8274,-3.8276,-3.8297,-3.8303,-3.8308,0,0,0,0,0,0,-3.8158,-3.8165,-3.816,-3.8187,-3.8195,-3.8201,-3.8215,-3.8208,-3.8219,-3.8216,-3.821,-3.8212,-3.8236,-3.8238,-3.8223,-3.8265,-3.8248,-3.8251,-3.8263,-3.8268,-3.8272,-3.8271,-3.8204,0,0,0,0,0,-3.8166,-3.8181,-3.8186,-3.821,-3.8214,-3.8214,-3.8222,-3.8219,-3.8226,-3.8229,-3.8232,-3.8239,-3.8251,-3.826,-3.8272,-3.83,-3.8301,-3.8313,-3.8317,-3.8321,-3.8324,-3.8339,-3.8344,-3.8286,-3.8286,-3.8286,0,0,-3.8181,-3.8187,-3.8196,-3.8214,-3.8219,-3.8235,-3.8217,-3.8234,-3.8245,-3.8231,-3.8253,-3.8255,-3.8262,-3.8288,-3.8299,-3.8291,-3.834,-3.8324,-3.8327,-3.8328,-3.8342,-3.8348,-3.8353,-3.8288,-3.8287,-3.8287,0,0,-3.8216,-3.8222,-3.8243,-3.825,-3.8259,-3.8259,-3.8264,-3.8271,-3.8272,-3.8294,-3.8284,-3.8297,-3.8319,-3.8325,-3.8331,-3.837,-3.8361,-3.8374,-3.8396,-3.8411,-3.8415,-3.8419,-3.8433,-3.8438,-3.8377,-3.8377,-3.8377,0,-3.8233,-3.8257,-3.8254,-3.8273,-3.828,-3.827,-3.8291,-3.8297,-3.8309,-3.8314,-3.8305,-3.8333,-3.8337,-3.8364,-3.8374,-3.8379,-3.8384,-3.8373,-3.8415,-3.8419,-3.8423,-3.8436,-3.8441,-3.8379,-3.8378,-3.8378,-3.8378,0,-3.8278,-3.8295,-3.831,-3.8324,-3.8334,-3.8353,-3.8352,-3.8362,-3.8358,-3.8359,-3.8382,-3.8386,-3.8399,-3.8406,-3.8401,-3.8432,-3.8426,-3.8416,-3.8398,-3.843,-3.8442,-3.8447,-3.8381,-3.838,-3.838,-3.8379,0,0,-3.8324,-3.8337,-3.8343,-3.8349,-3.8359,-3.8372,-3.8391,-3.8405,-3.8413,-3.8422,-3.8438,-3.8457,-3.8448,-3.8455,-3.8451,-3.8465,-3.8495,-3.8453,-3.8453,-3.846,-3.8529,-3.8536,-3.8542,-3.849,-3.8491,-3.8491,-3.8528,0,-3.836,-3.8393,-3.8392,-3.8423,-3.8439,-3.843,-3.8446,-3.8454,-3.8455,-3.8468,-3.8469,-3.8483,-3.8471,-3.8475,-3.8487,-3.8489,-3.8509,-3.8486,-3.8503,-3.8504,-3.8501,-3.8549,-3.8556,-3.8591,-3.8533,-3.8534,-3.8535,0,-3.8405,-3.8418,-3.8451,-3.846,-3.8466,-3.8481,-3.8494,-3.8506,-3.8515,-3.8515,-3.8524,-3.8518,-3.8536,-3.8519,-3.8545,-3.8529,-3.8536,-3.8538,-3.8539,-3.854,-3.8521,-3.855,-3.8602,-3.8607,-3.8542,-3.8541,-3.8541,0,-3.8435,-3.846,-3.8483,-3.8489,-3.85,-3.8511,-3.8516,-3.8523,-3.8532,-3.8543,-3.8548,-3.8561,-3.8568,-3.8578,-3.8575,-3.8563,-3.8601,-3.8584,-3.8601,-3.8601,-3.8609,-3.8608,-3.8662,-3.8614,-3.8614,-3.8614,-3.8614,0,-3.8475,-3.8495,-3.8497,-3.8511,-3.8534,-3.8532,-3.8555,-3.8558,-3.8565,-3.858,-3.8572,-3.8586,-3.8583,-3.8596,-3.8594,-3.8615,-3.8618,-3.8619,-3.8618,-3.8619,-3.8619,-3.8623,-3.862,-3.8616,-3.8615,-3.8615,-3.8615,0,-3.8512,-3.8514,-3.8539,-3.8548,-3.855,-3.8567,-3.8574,-3.8587,-3.8589,-3.8607,-3.8611,-3.8613,-3.8628,-3.8628,-3.8644,-3.8643,-3.8669,-3.8666,-3.8667,-3.8666,-3.8683,-3.8681,-3.8741,-3.8748,-3.8696,-3.8697,-3.8697,0,-3.8536,-3.8552,-3.8564,-3.8573,-3.8579,-3.8595,-3.8604,-3.8603,-3.8613,-3.8624,-3.8636,-3.8651,-3.8663,-3.8687,-3.869,-3.8703,-3.8699,-3.8719,-3.8701,-3.8702,-3.8699,-3.8698,-3.8699,-3.8722,-3.8723,-3.8723,-3.8724,0,-3.858,-3.8581,-3.8595,-3.861,-3.8622,-3.8633,-3.8643,-3.8651,-3.8651,-3.8662,-3.8679,-3.8688,-3.8706,-3.872,-3.8733,-3.8737,-3.873,-3.873,-3.8734,-3.8735,-3.8735,-3.8735,-3.8676,-3.8728,-3.8728,-3.8727,-3.8727,-3.8727,-3.8611,-3.8625,-3.8636,-3.8652,-3.866,-3.867,-3.8683,-3.8687,-3.8701,-3.8717,-3.8715,-3.8733,-3.8741,-3.8758,-3.8763,-3.8777,-3.877,-3.8776,-3.8778,-3.878,-3.8782,-3.8734,-3.8779,-3.8779,-3.8779,-3.8779,-3.8779,0,-3.8654,-3.8661,-3.8676,-3.8692,-3.8705,-3.8699,-3.871,-3.8721,-3.8737,-3.8746,-3.8759,-3.8777,-3.8792,-3.8796,-3.881,-3.882,-3.8817,-3.8824,-3.8822,-3.8823,-3.8787,-3.8782,-3.8826,-3.8826,-3.8826,-3.8826,-3.8826,-3.8826,-3.8678,-3.8701,-3.8704,-3.8731,-3.8737,-3.8756,-3.8763,-3.8772,-3.878,-3.8801,-3.8814,-3.8817,-3.8824,-3.8839,-3.8852,-3.8852,-3.8858,-3.8865,-3.8865,-3.8831,-3.8826,-3.8821,-3.8816,-3.8866,-3.8867,-3.89,-3.89,-3.89]}]]